Time,TemperatureF,DewpointF,PressureIn,WindDirection,WindDirectionDegrees,WindSpeedMPH,WindSpeedGustMPH,Humidity,HourlyPrecipIn,Conditions,Clouds,dailyrainin,SoftwareType,DateUTC
2013-07-14 00:05:00,73.1,73.0,30.29,ESE,113,0.0,0.0,98,0.00,,,0.00,weatherlink.com 1.10,2013-07-14 04:05:00,
2013-07-14 00:20:00,73.1,73.0,30.29,ESE,113,0.0,0.0,98,0.00,,,0.00,weatherlink.com 1.10,2013-07-14 04:20:00,
2013-07-14 00:35:00,73.2,73.0,30.29,ESE,113,0.0,1.0,98,0.00,,,0.00,weatherlink.com 1.10,2013-07-14 04:35:00,
2013-07-14 00:50:00,73.3,73.0,30.29,East,95,0.0,1.0,98,0.00,,,0.00,weatherlink.com 1.10,2013-07-14 04:50:00,
2013-07-14 01:05:00,73.3,73.0,30.29,East,94,0.0,1.0,98,0.00,,,0.00,weatherlink.com 1.10,2013-07-14 05:05:00,
2013-07-14 01:20:00,73.4,73.0,30.29,East,96,0.0,1.0,98,0.00,,,0.00,weatherlink.com 1.10,2013-07-14 05:20:00,
2013-07-14 01:35:00,73.5,73.0,30.29,SSE,150,0.0,1.0,98,0.01,,,0.01,weatherlink.com 1.10,2013-07-14 05:35:00,
2013-07-14 01:50:00,73.6,73.0,30.29,West,280,0.0,2.0,98,0.01,,,0.01,weatherlink.com 1.10,2013-07-14 05:50:00,
2013-07-14 02:05:00,73.5,73.0,30.29,West,265,0.0,3.0,98,0.01,,,0.01,weatherlink.com 1.10,2013-07-14 06:05:00,
2013-07-14 02:20:00,73.5,73.0,30.29,West,260,0.0,1.0,98,0.01,,,0.01,weatherlink.com 1.10,2013-07-14 06:20:00,
2013-07-14 02:35:00,73.4,73.0,30.30,SSE,158,0.0,0.0,98,0.00,,,0.01,weatherlink.com 1.10,2013-07-14 06:35:00,
2013-07-14 02:50:00,73.2,73.0,30.30,SSE,158,0.0,0.0,98,0.00,,,0.01,weatherlink.com 1.10,2013-07-14 06:50:00,
2013-07-14 03:05:00,72.9,72.0,30.30,SSE,158,0.0,0.0,98,0.00,,,0.01,weatherlink.com 1.10,2013-07-14 07:05:00,
2013-07-14 03:20:00,72.6,72.0,30.30,SSE,158,0.0,0.0,98,0.00,,,0.01,weatherlink.com 1.10,2013-07-14 07:20:00,
2013-07-14 03:35:00,72.6,72.0,30.30,SSE,158,0.0,0.0,98,0.00,,,0.01,weatherlink.com 1.10,2013-07-14 07:35:00,
2013-07-14 03:50:00,72.8,73.0,30.30,SSE,158,0.0,0.0,99,0.00,,,0.01,weatherlink.com 1.10,2013-07-14 07:50:00,
2013-07-14 04:06:00,72.9,73.0,30.30,SSE,158,0.0,0.0,99,0.00,,,0.01,weatherlink.com 1.10,2013-07-14 08:06:00,
2013-07-14 04:21:00,72.9,73.0,30.30,SSE,158,0.0,0.0,99,0.00,,,0.01,weatherlink.com 1.10,2013-07-14 08:21:00,
2013-07-14 04:36:00,73.0,73.0,30.31,SSE,158,0.0,0.0,99,0.00,,,0.01,weatherlink.com 1.10,2013-07-14 08:36:00,
2013-07-14 04:51:00,73.0,72.0,30.31,SSE,158,0.0,0.0,98,0.00,,,0.01,weatherlink.com 1.10,2013-07-14 08:51:00,
2013-07-14 05:06:00,73.2,73.0,30.31,SSE,158,0.0,0.0,99,0.00,,,0.01,weatherlink.com 1.10,2013-07-14 09:06:00,
2013-07-14 05:21:00,73.2,73.0,30.32,SSE,158,0.0,0.0,99,0.00,,,0.01,weatherlink.com 1.10,2013-07-14 09:21:00,
2013-07-14 05:36:00,73.3,73.0,30.32,SSE,158,0.0,0.0,99,0.00,,,0.01,weatherlink.com 1.10,2013-07-14 09:36:00,
2013-07-14 05:51:00,73.2,73.0,30.32,SSE,158,0.0,0.0,99,0.00,,,0.01,weatherlink.com 1.10,2013-07-14 09:51:00,
2013-07-14 06:06:00,73.3,73.0,30.32,SSE,158,0.0,0.0,99,0.00,,,0.01,weatherlink.com 1.10,2013-07-14 10:06:00,
2013-07-14 06:21:00,73.3,73.0,30.33,SSE,158,0.0,0.0,99,0.00,,,0.01,weatherlink.com 1.10,2013-07-14 10:21:00,
2013-07-14 06:36:00,73.3,73.0,30.33,SSE,158,0.0,1.0,99,0.00,,,0.01,weatherlink.com 1.10,2013-07-14 10:36:00,
2013-07-14 06:51:00,73.3,73.0,30.34,SSE,158,0.0,1.0,99,0.00,,,0.01,weatherlink.com 1.10,2013-07-14 10:51:00,
2013-07-14 07:06:00,73.3,73.0,30.34,SSE,156,0.0,0.0,99,0.00,,,0.01,weatherlink.com 1.10,2013-07-14 11:06:00,
2013-07-14 07:21:00,73.4,73.0,30.34,SSE,156,0.0,0.0,99,0.00,,,0.01,weatherlink.com 1.10,2013-07-14 11:21:00,
2013-07-14 07:36:00,73.5,73.0,30.35,SSE,156,0.0,1.0,99,0.00,,,0.01,weatherlink.com 1.10,2013-07-14 11:36:00,
2013-07-14 07:51:00,73.9,74.0,30.35,SSE,156,0.0,1.0,99,0.00,,,0.01,weatherlink.com 1.10,2013-07-14 11:51:00,
2013-07-14 08:06:00,74.1,74.0,30.35,SSE,156,0.0,0.0,99,0.00,,,0.01,weatherlink.com 1.10,2013-07-14 12:06:00,
2013-07-14 08:21:00,74.4,74.0,30.35,South,186,0.0,2.0,99,0.00,,,0.01,weatherlink.com 1.10,2013-07-14 12:21:00,
2013-07-14 08:36:00,74.6,74.0,30.35,ENE,67,0.0,1.0,98,0.00,,,0.01,weatherlink.com 1.10,2013-07-14 12:36:00,
2013-07-14 08:51:00,75.2,75.0,30.35,ENE,70,0.0,1.0,98,0.00,,,0.01,weatherlink.com 1.10,2013-07-14 12:51:00,
2013-07-14 09:06:00,76.1,75.0,30.35,ESE,105,0.0,1.0,95,0.00,,,0.01,weatherlink.com 1.10,2013-07-14 13:06:00,
2013-07-14 09:21:00,77.0,75.0,30.34,ESE,109,1.0,1.0,92,0.00,,,0.01,weatherlink.com 1.10,2013-07-14 13:21:00,
2013-07-14 09:36:00,77.6,75.0,30.34,SSW,195,0.0,1.0,91,0.00,,,0.01,weatherlink.com 1.10,2013-07-14 13:36:00,
2013-07-14 09:51:00,78.2,74.0,30.34,WNW,287,0.0,2.0,88,0.00,,,0.01,weatherlink.com 1.10,2013-07-14 13:51:00,
2013-07-14 10:06:00,78.7,74.0,30.34,West,262,0.0,2.0,86,0.00,,,0.01,weatherlink.com 1.10,2013-07-14 14:06:00,
2013-07-14 10:21:00,78.7,75.0,30.34,South,177,0.0,2.0,87,0.00,,,0.01,weatherlink.com 1.10,2013-07-14 14:21:00,
2013-07-14 10:36:00,78.7,74.0,30.33,SSE,158,0.0,0.0,86,0.00,,,0.01,weatherlink.com 1.10,2013-07-14 14:36:00,
2013-07-14 10:51:00,79.3,75.0,30.33,SSE,150,0.0,0.0,87,0.00,,,0.01,weatherlink.com 1.10,2013-07-14 14:51:00,
2013-07-14 11:06:00,79.8,75.0,30.33,SSE,150,0.0,1.0,86,0.00,,,0.01,weatherlink.com 1.10,2013-07-14 15:06:00,
2013-07-14 11:21:00,80.4,75.0,30.33,SSE,163,0.0,0.0,84,0.00,,,0.01,weatherlink.com 1.10,2013-07-14 15:21:00,
2013-07-14 11:36:00,81.2,75.0,30.33,SSE,150,0.0,3.0,82,0.00,,,0.01,weatherlink.com 1.10,2013-07-14 15:36:00,
2013-07-14 11:51:00,81.9,76.0,30.32,SSE,152,0.0,0.0,81,0.00,,,0.01,weatherlink.com 1.10,2013-07-14 15:51:00,
2013-07-14 12:06:00,82.6,75.0,30.32,SSE,165,0.0,1.0,78,0.00,,,0.01,weatherlink.com 1.10,2013-07-14 16:06:00,
2013-07-14 12:21:00,83.0,75.0,30.32,WSW,240,1.0,3.0,77,0.00,,,0.01,weatherlink.com 1.10,2013-07-14 16:21:00,
2013-07-14 12:37:00,83.9,76.0,30.32,West,280,0.0,2.0,78,0.00,,,0.01,weatherlink.com 1.10,2013-07-14 16:37:00,
2013-07-14 12:52:00,84.5,75.0,30.32,SSE,155,0.0,2.0,73,0.00,,,0.01,weatherlink.com 1.10,2013-07-14 16:52:00,
2013-07-14 13:07:00,84.5,75.0,30.31,ESE,105,0.0,2.0,74,0.00,,,0.01,weatherlink.com 1.10,2013-07-14 17:07:00,
2013-07-14 13:22:00,84.9,76.0,30.31,SE,127,0.0,1.0,75,0.00,,,0.01,weatherlink.com 1.10,2013-07-14 17:22:00,
2013-07-14 13:37:00,85.6,75.0,30.31,SSE,153,0.0,2.0,71,0.00,,,0.01,weatherlink.com 1.10,2013-07-14 17:37:00,
2013-07-14 13:52:00,86.2,74.0,30.30,South,183,0.0,3.0,67,0.00,,,0.01,weatherlink.com 1.10,2013-07-14 17:52:00,
2013-07-14 14:07:00,87.2,75.0,30.30,WNW,284,1.0,2.0,66,0.00,,,0.01,weatherlink.com 1.10,2013-07-14 18:07:00,
2013-07-14 14:22:00,87.1,74.0,30.30,East,84,0.0,1.0,66,0.00,,,0.01,weatherlink.com 1.10,2013-07-14 18:22:00,
2013-07-14 14:37:00,87.6,75.0,30.30,SE,126,0.0,2.0,66,0.00,,,0.01,weatherlink.com 1.10,2013-07-14 18:37:00,
2013-07-14 14:52:00,88.8,76.0,30.30,NW,318,0.0,4.0,66,0.00,,,0.01,weatherlink.com 1.10,2013-07-14 18:52:00,
2013-07-14 15:07:00,88.9,75.0,30.29,SE,125,0.0,4.0,63,0.00,,,0.01,weatherlink.com 1.10,2013-07-14 19:07:00,
2013-07-14 15:22:00,88.9,75.0,30.29,West,262,0.0,2.0,63,0.00,,,0.01,weatherlink.com 1.10,2013-07-14 19:22:00,
2013-07-14 15:37:00,89.1,76.0,30.28,ESE,113,0.0,2.0,65,0.00,,,0.01,weatherlink.com 1.10,2013-07-14 19:37:00,
2013-07-14 15:52:00,89.7,76.0,30.28,SE,139,0.0,1.0,64,0.00,,,0.01,weatherlink.com 1.10,2013-07-14 19:52:00,
2013-07-14 16:07:00,89.4,74.0,30.28,SSE,147,0.0,1.0,61,0.00,,,0.01,weatherlink.com 1.10,2013-07-14 20:07:00,
2013-07-14 16:22:00,89.0,75.0,30.27,SSE,153,0.0,3.0,63,0.00,,,0.01,weatherlink.com 1.10,2013-07-14 20:22:00,
2013-07-14 16:37:00,89.0,74.0,30.27,SSE,159,0.0,2.0,61,0.00,,,0.01,weatherlink.com 1.10,2013-07-14 20:37:00,
2013-07-14 16:52:00,88.4,72.0,30.27,ESE,120,0.0,3.0,59,0.00,,,0.01,weatherlink.com 1.10,2013-07-14 20:52:00,
2013-07-14 17:07:00,88.1,73.0,30.26,South,176,0.0,4.0,62,0.00,,,0.01,weatherlink.com 1.10,2013-07-14 21:07:00,
2013-07-14 17:22:00,87.1,73.0,30.26,SSE,168,0.0,2.0,63,0.00,,,0.01,weatherlink.com 1.10,2013-07-14 21:22:00,
2013-07-14 17:37:00,86.5,73.0,30.26,ESE,117,0.0,3.0,64,0.00,,,0.01,weatherlink.com 1.10,2013-07-14 21:37:00,
2013-07-14 17:52:00,85.8,72.0,30.25,NE,53,0.0,1.0,64,0.00,,,0.01,weatherlink.com 1.10,2013-07-14 21:52:00,
2013-07-14 18:07:00,85.1,72.0,30.25,NE,54,0.0,1.0,64,0.00,,,0.01,weatherlink.com 1.10,2013-07-14 22:07:00,
2013-07-14 18:22:00,84.6,72.0,30.26,NE,54,0.0,1.0,67,0.00,,,0.01,weatherlink.com 1.10,2013-07-14 22:22:00,
2013-07-14 18:37:00,84.1,73.0,30.26,SSE,150,0.0,2.0,69,0.00,,,0.01,weatherlink.com 1.10,2013-07-14 22:37:00,
2013-07-14 18:52:00,83.8,73.0,30.26,WNW,296,0.0,2.0,69,0.00,,,0.01,weatherlink.com 1.10,2013-07-14 22:52:00,
2013-07-14 19:07:00,83.1,73.0,30.25,WNW,296,0.0,0.0,72,0.00,,,0.01,weatherlink.com 1.10,2013-07-14 23:07:00,
2013-07-14 19:22:00,82.7,72.0,30.25,West,270,0.0,0.0,70,0.00,,,0.01,weatherlink.com 1.10,2013-07-14 23:22:00,
2013-07-14 19:37:00,82.3,71.0,30.25,ESE,107,0.0,1.0,68,0.00,,,0.01,weatherlink.com 1.10,2013-07-14 23:37:00,
2013-07-14 19:52:00,82.1,70.0,30.25,ESE,108,0.0,1.0,67,0.00,,,0.01,weatherlink.com 1.10,2013-07-14 23:52:00,
2013-07-14 20:07:00,81.1,70.0,30.25,ESE,108,0.0,0.0,70,0.00,,,0.01,weatherlink.com 1.10,2013-07-15 00:07:00,
2013-07-14 20:22:00,79.6,71.0,30.25,ESE,108,0.0,0.0,74,0.00,,,0.01,weatherlink.com 1.10,2013-07-15 00:22:00,
2013-07-14 20:37:00,78.5,70.0,30.25,ESE,108,0.0,0.0,75,0.00,,,0.01,weatherlink.com 1.10,2013-07-15 00:37:00,
2013-07-14 20:52:00,78.0,70.0,30.25,ESE,109,0.0,0.0,76,0.00,,,0.01,weatherlink.com 1.10,2013-07-15 00:52:00,
2013-07-14 21:07:00,77.8,70.0,30.26,ESE,108,0.0,0.0,78,0.00,,,0.01,weatherlink.com 1.10,2013-07-15 01:07:00,
2013-07-14 21:22:00,77.5,71.0,30.26,ESE,108,0.0,0.0,80,0.00,,,0.01,weatherlink.com 1.10,2013-07-15 01:22:00,
2013-07-14 21:37:00,77.5,71.0,30.26,ESE,109,0.0,1.0,80,0.00,,,0.01,weatherlink.com 1.10,2013-07-15 01:37:00,
2013-07-14 21:52:00,77.6,71.0,30.26,ESE,107,0.0,0.0,80,0.00,,,0.01,weatherlink.com 1.10,2013-07-15 01:52:00,
2013-07-14 22:07:00,77.7,70.0,30.26,SE,139,0.0,0.0,78,0.00,,,0.01,weatherlink.com 1.10,2013-07-15 02:07:00,
2013-07-14 22:22:00,78.2,71.0,30.26,SE,139,0.0,0.0,78,0.00,,,0.01,weatherlink.com 1.10,2013-07-15 02:22:00,
2013-07-14 22:37:00,78.9,71.0,30.26,NW,314,0.0,1.0,77,0.00,,,0.01,weatherlink.com 1.10,2013-07-15 02:37:00,
2013-07-14 22:52:00,78.7,71.0,30.26,South,172,0.0,1.0,77,0.00,,,0.01,weatherlink.com 1.10,2013-07-15 02:52:00,
2013-07-14 23:07:00,78.6,71.0,30.25,South,191,0.0,2.0,77,0.00,,,0.01,weatherlink.com 1.10,2013-07-15 03:07:00,
2013-07-14 23:22:00,78.3,71.0,30.25,South,186,0.0,2.0,79,0.00,,,0.01,weatherlink.com 1.10,2013-07-15 03:22:00,
2013-07-14 23:37:00,77.4,71.0,30.26,South,186,0.0,0.0,80,0.00,,,0.01,weatherlink.com 1.10,2013-07-15 03:37:00,
2013-07-14 23:52:00,77.4,71.0,30.26,NW,322,0.0,1.0,81,0.00,,,0.01,weatherlink.com 1.10,2013-07-15 03:52:00,